[[{"header":{"parameterUnit":"m.s-1","parameterCategory":1,"la1":30.2991,"la2":30.254,"lo1":-89.0895,"lo2":-89.0444,"dy":0.0017,"dx":0.0017,"nx":28,"ny":28,"refTime":"2025-08-27T09:00:00:Z","depth":0,"parameterNumber":2,"parameterNumberName":"U-component_of_WINDS"},"data":[0,0,0,0,0,0,0,0,0,0,0,0,0,0,0,0,0,0,0,0,0,0,0,0,0,0,0,0,0,0,0,0,0,0,0,0,0,0,0,0,0,0,0,0,0,0,0,0,0,0,0,0,0,0,0,0,0,0,-2.862,-2.8623,0,-2.8868,-2.8871,-2.8874,-2.8965,-2.8964,-2.8964,-2.8963,-2.9213,-2.922,-2.9228,0,0,0,0,0,0,0,0,0,0,0,0,0,-2.8222,-2.8229,-2.862,-2.8623,-2.8626,-2.8868,-2.8871,-2.8875,-2.8965,-2.8964,-2.8963,-2.8963,-2.9211,-2.9219,-2.9228,0,0,0,0,0,0,0,0,0,0,0,0,0,-2.8425,-2.8231,-2.862,-2.8701,-2.8711,-2.8867,-2.8871,-2.8876,-2.8966,-2.8964,-2.8963,-2.8962,-2.9208,-2.9218,-2.9229,-2.9322,0,0,-2.9263,-2.9268,0,0,0,0,0,0,0,0,-2.8413,-2.8439,-2.8686,-2.8696,-2.8707,-2.8885,-2.8823,-2.9025,-2.8966,-2.8869,-2.8963,-2.8961,-2.9104,-2.9124,-2.9173,-2.9334,-2.9345,-2.9264,-2.9271,-2.9276,-2.9279,0,0,0,0,0,0,0,-2.8399,-2.8429,-2.8718,-2.8689,-2.8702,-2.8724,-2.8751,-2.8861,-2.899,-2.8877,-2.8884,-2.8913,-2.911,-2.9162,-2.918,-2.9348,-2.9264,-2.9274,-2.9281,-2.9285,-2.9598,-2.96,0,0,0,0,0,0,-2.8372,-2.8417,-2.871,-2.8726,-2.8554,-2.8732,-2.8763,-2.8829,-2.8989,-2.9013,-2.8913,-2.8916,-2.9144,-2.9167,-2.9189,-2.9308,-2.9276,-2.9286,-2.9293,-2.9596,-2.9598,-2.96,0,0,0,0,0,0,-2.8363,-2.8397,-2.87,-2.8573,-2.8614,-2.874,-2.8813,-2.8834,-2.8887,-2.9017,-2.904,-2.8943,-2.9144,-2.9173,-2.9289,-2.9318,-2.9291,-2.9301,-2.9594,-2.9597,-2.9599,-2.9546,0,0,0,0,0,0,-2.8351,-2.8393,-2.8431,-2.8574,-2.862,-2.8797,-2.8815,-2.884,-2.8906,-2.8912,-2.9051,-2.9073,-2.9145,-2.9272,-2.93,-2.9332,-2.931,-2.9592,-2.9596,-2.9598,-2.9546,-2.9546,-2.9547,0,0,0,0,0,-2.8337,-2.8405,-2.8432,-2.8467,-2.8669,-2.8798,-2.8825,-2.8907,-2.8908,-2.8946,-2.903,-2.9068,-2.931,-2.9283,-2.9315,-2.9351,-2.9591,-2.9595,-2.9598,-2.9545,-2.9546,-2.9547,0,0,0,0,0,0,-2.826,-2.8425,-2.8457,-2.8574,-2.8671,-2.8813,-2.8864,-2.8906,-2.9004,-2.9005,-2.9103,-2.9134,-2.9241,-2.9308,-2.9275,-2.945,-2.9453,-2.9463,-2.9402,-2.9404,-2.9404,-2.9385,-2.9319,0,0,0,0,0,-2.8257,-2.8349,-2.8488,-2.8578,-2.8625,-2.8736,-2.8795,-2.8851,-2.8955,-2.8997,-2.9089,-2.9188,-2.9287,-2.9349,-2.9447,-2.9557,-2.9588,-2.9598,-2.9598,-2.9598,-2.9605,-2.9668,-2.9674,-2.9612,-2.9612,-2.9612,0,0,-2.8251,-2.8353,-2.8405,-2.8565,-2.8647,-2.8739,-2.877,-2.8866,-2.8935,-2.9011,-2.9126,-2.9197,-2.9314,-2.9427,-2.9481,-2.9486,-2.963,-2.9603,-2.9602,-2.9609,-2.9672,-2.9678,-2.9683,-2.9615,-2.9614,-2.9614,0,0,-2.8288,-2.8374,-2.8458,-2.8541,-2.8665,-2.8739,-2.8759,-2.8895,-2.8946,-2.9063,-2.9122,-2.9205,-2.9373,-2.9454,-2.9517,-2.9585,-2.9624,-2.9615,-2.9617,-2.9677,-2.9682,-2.9686,-2.971,-2.9717,-2.9622,-2.9622,-2.9621,0,-2.8264,-2.8406,-2.8496,-2.8589,-2.8657,-2.8733,-2.8818,-2.8893,-2.9042,-2.9087,-2.9091,-2.9304,-2.9388,-2.9521,-2.9538,-2.9587,-2.9612,-2.9598,-2.9674,-2.968,-2.9685,-2.9709,-2.9717,-2.9619,-2.962,-2.962,-2.962,0,-2.8371,-2.8469,-2.8521,-2.8665,-2.874,-2.8828,-2.893,-2.8995,-2.9045,-2.9117,-2.9235,-2.9339,-2.946,-2.9496,-2.9544,-2.9636,-2.9635,-2.9655,-2.966,-2.9688,-2.9711,-2.9721,-2.9616,-2.9617,-2.9618,-2.9618,0,0,-2.8364,-2.8558,-2.8576,-2.8642,-2.8786,-2.8862,-2.8954,-2.9073,-2.9126,-2.9227,-2.9306,-2.9447,-2.9467,-2.9539,-2.9598,-2.9651,-2.9697,-2.9665,-2.9669,-2.9666,-2.9803,-2.9786,-2.9795,-2.9725,-2.9727,-2.9729,-2.9793,0,-2.8419,-2.8587,-2.8671,-2.8803,-2.8894,-2.8967,-2.9047,-2.9143,-2.9214,-2.9301,-2.9379,-2.9477,-2.9496,-2.954,-2.9596,-2.9679,-2.9726,-2.9676,-2.9798,-2.9801,-2.9765,-2.9808,-2.9789,-2.9845,-2.9803,-2.9805,-2.9806,0,-2.8504,-2.8606,-2.8747,-2.888,-2.8922,-2.8992,-2.9108,-2.9191,-2.9301,-2.9349,-2.9429,-2.9487,-2.9586,-2.9585,-2.9722,-2.9687,-2.9742,-2.9791,-2.9795,-2.9808,-2.9804,-2.982,-2.9865,-2.9873,-2.9822,-2.982,-2.9819,0,-2.8483,-2.8656,-2.8763,-2.8817,-2.8976,-2.9024,-2.9092,-2.9202,-2.9268,-2.9369,-2.9413,-2.9524,-2.9584,-2.9668,-2.9754,-2.9746,-2.9883,-2.9889,-2.9924,-2.9922,-2.9948,-2.9945,-3.0001,-2.9986,-2.9986,-2.9986,-2.9985,0,-2.8534,-2.8617,-2.8756,-2.8821,-2.8916,-2.9012,-2.9103,-2.9177,-2.9274,-2.9354,-2.9425,-2.9498,-2.9608,-2.9696,-2.9764,-2.9866,-2.9893,-2.9934,-2.9951,-2.9927,-2.9922,-2.9963,-2.9961,-2.9988,-2.9987,-2.9987,-2.9987,0,-2.8527,-2.8623,-2.8744,-2.8885,-2.8922,-2.8986,-2.9106,-2.9172,-2.9247,-2.9348,-2.9377,-2.9494,-2.9601,-2.9696,-2.9837,-2.9882,-2.9987,-3.0009,-2.995,-2.9959,-2.9988,-2.9983,-3.0071,-3.0087,-3.0062,-3.0062,-3.0062,0,-2.8552,-2.8618,-2.8766,-2.8826,-2.8893,-2.8988,-2.9056,-2.9153,-2.9221,-2.9353,-2.9402,-2.9515,-2.9609,-2.9776,-2.9873,-2.9982,-3.0006,-3.0029,-3.0022,-2.9996,-3.0005,-2.9999,-3.0006,-3.0028,-3.0028,-3.0027,-3.0027,0,-2.8587,-2.8631,-2.8728,-2.8841,-2.8921,-2.9014,-2.911,-2.9154,-2.9269,-2.9342,-2.9452,-2.9526,-2.9671,-2.9781,-2.99,-2.997,-3.0017,-3.0029,-3.0043,-3.0018,-2.9981,-3.0001,-2.9947,-3.0026,-3.0026,-3.0026,-3.0026,-3.0026,-2.8596,-2.8658,-2.8772,-2.8877,-2.8959,-2.9047,-2.9116,-2.92,-2.9294,-2.942,-2.9472,-2.9584,-2.9694,-2.9859,-2.9929,-3.0018,-3.0026,-3.0046,-3.0051,-3.0054,-3.0049,-2.9968,-3.004,-3.004,-3.004,-3.004,-3.004,0,-2.8633,-2.8711,-2.8806,-2.8938,-2.9021,-2.906,-2.9168,-2.9234,-2.9332,-2.9431,-2.9523,-2.965,-2.9758,-2.9864,-2.9977,-3.0028,-3.0053,-3.0054,-3.0051,-3.0066,-3.0036,-3.0012,-3.0032,-3.0032,-3.0032,-3.0032,-3.0032,-3.0032,-2.8662,-2.8769,-2.8827,-2.8975,-2.9052,-2.9163,-2.9221,-2.9302,-2.9382,-2.9521,-2.9611,-2.968,-2.9782,-2.9903,-3.0003,-3.0032,-3.007,-3.0065,-3.0099,-3.0068,-3.0068,-3.0067,-3.0046,-3.0073,-3.0073,-3.0122,-3.0122,-3.0123]},{"header":{"parameterUnit":"m.s-1","parameterCategory":1,"la1":30.2991,"la2":30.254,"lo1":-89.0895,"lo2":-89.0444,"dy":0.0017,"dx":0.0017,"nx":28,"ny":28,"refTime":"2025-08-27T09:00:00:Z","depth":0,"parameterNumber":3,"parameterNumberName":"V-component_of_WINDS"},"data":[0,0,0,0,0,0,0,0,0,0,0,0,0,0,0,0,0,0,0,0,0,0,0,0,0,0,0,0,0,0,0,0,0,0,0,0,0,0,0,0,0,0,0,0,0,0,0,0,0,0,0,0,0,0,0,0,0,0,-0.1022,-0.1021,0,-0.0954,-0.0953,-0.0952,-0.0948,-0.0949,-0.095,-0.0951,-0.0884,-0.0881,-0.0879,0,0,0,0,0,0,0,0,0,0,0,0,0,-0.1151,-0.1148,-0.1022,-0.1021,-0.102,-0.0954,-0.0953,-0.0952,-0.0948,-0.0949,-0.095,-0.0951,-0.0884,-0.0882,-0.0879,0,0,0,0,0,0,0,0,0,0,0,0,0,-0.109,-0.1147,-0.1022,-0.101,-0.1009,-0.0954,-0.0953,-0.0952,-0.0948,-0.0949,-0.095,-0.0951,-0.0885,-0.0882,-0.0878,-0.0832,0,0,-0.0867,-0.0865,0,0,0,0,0,0,0,0,-0.1093,-0.1085,-0.1013,-0.1011,-0.1009,-0.0961,-0.0974,-0.0912,-0.0948,-0.0971,-0.0951,-0.0952,-0.0909,-0.0903,-0.0888,-0.0829,-0.0826,-0.0866,-0.0864,-0.0862,-0.0861,0,0,0,0,0,0,0,-0.1097,-0.1088,-0.0995,-0.1012,-0.1009,-0.1009,-0.1002,-0.0962,-0.0934,-0.0969,-0.0969,-0.096,-0.0908,-0.0891,-0.0886,-0.0825,-0.0866,-0.0863,-0.0861,-0.0859,-0.0723,-0.0721,0,0,0,0,0,0,-0.1104,-0.1092,-0.0997,-0.0993,-0.1055,-0.1006,-0.0997,-0.0975,-0.0935,-0.093,-0.096,-0.096,-0.0897,-0.089,-0.0884,-0.0826,-0.0862,-0.0859,-0.0857,-0.0724,-0.0722,-0.0721,0,0,0,0,0,0,-0.1106,-0.1095,-0.1,-0.1042,-0.103,-0.1002,-0.0977,-0.0973,-0.0957,-0.0927,-0.0923,-0.0948,-0.0898,-0.0889,-0.0844,-0.0824,-0.0857,-0.0854,-0.0726,-0.0724,-0.0722,-0.0711,0,0,0,0,0,0,-0.111,-0.1096,-0.1078,-0.1042,-0.1028,-0.0961,-0.0976,-0.0971,-0.095,-0.0951,-0.0915,-0.091,-0.0898,-0.085,-0.084,-0.0819,-0.0851,-0.0727,-0.0725,-0.0722,-0.0713,-0.0709,-0.0705,0,0,0,0,0,-0.1115,-0.1079,-0.1077,-0.1066,-0.1004,-0.096,-0.0952,-0.0938,-0.0948,-0.093,-0.0911,-0.0911,-0.0827,-0.0845,-0.0835,-0.0812,-0.0729,-0.0725,-0.0722,-0.0715,-0.0709,-0.0705,0,0,0,0,0,0,-0.1116,-0.1074,-0.1072,-0.1023,-0.0995,-0.0959,-0.0936,-0.0933,-0.0902,-0.0904,-0.0889,-0.0881,-0.0836,-0.0819,-0.084,-0.0764,-0.0779,-0.0774,-0.0777,-0.0772,-0.0768,-0.0773,-0.0848,0,0,0,0,0,-0.111,-0.1076,-0.1042,-0.1003,-0.0988,-0.0964,-0.0945,-0.0936,-0.0906,-0.0895,-0.0873,-0.0845,-0.0812,-0.0791,-0.0759,-0.071,-0.0702,-0.0689,-0.0685,-0.0682,-0.0678,-0.065,-0.0643,-0.0711,-0.0711,-0.0711,0,0,-0.1098,-0.1071,-0.1052,-0.1002,-0.0979,-0.0945,-0.0955,-0.0919,-0.0894,-0.089,-0.0846,-0.0828,-0.0796,-0.0748,-0.0726,-0.0733,-0.0657,-0.0678,-0.0676,-0.0673,-0.0646,-0.0639,-0.0634,-0.0709,-0.0709,-0.0709,0,0,-0.106,-0.1036,-0.1,-0.0976,-0.094,-0.0924,-0.0915,-0.088,-0.0867,-0.0822,-0.0818,-0.0788,-0.0732,-0.0709,-0.069,-0.064,-0.0639,-0.063,-0.061,-0.0583,-0.0577,-0.0572,-0.0554,-0.0548,-0.0626,-0.0626,-0.0626,0,-0.105,-0.0998,-0.0982,-0.0945,-0.0923,-0.0916,-0.0879,-0.0857,-0.0814,-0.0799,-0.0807,-0.0735,-0.0713,-0.0659,-0.0647,-0.0631,-0.0621,-0.0635,-0.0579,-0.0574,-0.057,-0.0552,-0.0545,-0.0625,-0.0625,-0.0625,-0.0625,0,-0.0988,-0.0952,-0.0927,-0.0883,-0.0858,-0.0822,-0.08,-0.0777,-0.0769,-0.0752,-0.0706,-0.0679,-0.0641,-0.0627,-0.0621,-0.0572,-0.0578,-0.0582,-0.0597,-0.0562,-0.0546,-0.0539,-0.0624,-0.0624,-0.0624,-0.0624,0,0,-0.095,-0.0896,-0.0887,-0.0866,-0.0825,-0.0797,-0.076,-0.0721,-0.0702,-0.0671,-0.064,-0.0591,-0.0595,-0.0573,-0.0563,-0.0539,-0.0501,-0.0547,-0.0546,-0.0539,-0.0445,-0.0442,-0.0435,-0.0499,-0.0498,-0.0497,-0.0448,0,-0.0907,-0.084,-0.0823,-0.0766,-0.0732,-0.0723,-0.0691,-0.0662,-0.0645,-0.0614,-0.0595,-0.0561,-0.0568,-0.0555,-0.0531,-0.051,-0.0482,-0.0514,-0.047,-0.0469,-0.0479,-0.0426,-0.0423,-0.0379,-0.0441,-0.044,-0.0439,0,-0.0849,-0.0815,-0.0754,-0.0716,-0.0701,-0.0672,-0.0634,-0.0605,-0.0572,-0.0561,-0.0535,-0.0527,-0.0488,-0.0504,-0.045,-0.0472,-0.0453,-0.044,-0.0438,-0.0434,-0.0453,-0.0421,-0.0364,-0.0358,-0.0429,-0.043,-0.0431,0,-0.0827,-0.0767,-0.0722,-0.0704,-0.0659,-0.0638,-0.0619,-0.0587,-0.0564,-0.0531,-0.0516,-0.048,-0.046,-0.0432,-0.0414,-0.0427,-0.0361,-0.0376,-0.0352,-0.0352,-0.0339,-0.034,-0.0279,-0.0326,-0.0326,-0.0326,-0.0326,0,-0.0781,-0.0744,-0.0711,-0.0684,-0.0642,-0.0622,-0.0581,-0.0561,-0.0533,-0.0501,-0.0492,-0.0463,-0.0441,-0.0409,-0.0395,-0.0352,-0.0343,-0.0334,-0.033,-0.0335,-0.0336,-0.0323,-0.0326,-0.0324,-0.0325,-0.0325,-0.0325,0,-0.0751,-0.0727,-0.0678,-0.0637,-0.0626,-0.0597,-0.0563,-0.0536,-0.0518,-0.0478,-0.0468,-0.0439,-0.0401,-0.038,-0.0332,-0.0323,-0.0275,-0.0273,-0.0286,-0.0284,-0.0261,-0.0264,-0.0189,-0.0179,-0.0233,-0.0232,-0.0232,0,-0.0724,-0.0695,-0.065,-0.0628,-0.0607,-0.0572,-0.0548,-0.0527,-0.0502,-0.0461,-0.0439,-0.04,-0.0368,-0.0307,-0.0282,-0.0245,-0.0243,-0.0219,-0.0238,-0.0242,-0.0243,-0.0245,-0.0242,-0.0217,-0.0216,-0.0216,-0.0215,0,-0.0678,-0.0667,-0.0632,-0.0592,-0.0564,-0.0532,-0.0501,-0.0483,-0.0457,-0.043,-0.0389,-0.0364,-0.0314,-0.0275,-0.0236,-0.0216,-0.0211,-0.0209,-0.0202,-0.0207,-0.0215,-0.021,-0.0277,-0.0212,-0.0212,-0.0212,-0.0212,-0.0213,-0.0648,-0.0622,-0.0586,-0.0547,-0.052,-0.0491,-0.0463,-0.044,-0.0405,-0.0362,-0.0352,-0.0309,-0.0276,-0.0222,-0.0201,-0.0168,-0.0173,-0.0162,-0.0159,-0.0157,-0.0156,-0.0219,-0.0161,-0.0161,-0.0161,-0.0161,-0.0161,0,-0.0602,-0.0578,-0.0542,-0.0497,-0.0467,-0.0462,-0.0427,-0.0402,-0.0364,-0.0333,-0.03,-0.0253,-0.0215,-0.0186,-0.0147,-0.0126,-0.0123,-0.0116,-0.0118,-0.0114,-0.0154,-0.0165,-0.0119,-0.0119,-0.012,-0.012,-0.012,-0.012,-0.0575,-0.0529,-0.0513,-0.0454,-0.043,-0.0387,-0.0367,-0.034,-0.0314,-0.0262,-0.0229,-0.021,-0.018,-0.0138,-0.0102,-0.0095,-0.0081,-0.0075,-0.0068,-0.0106,-0.0111,-0.0115,-0.0125,-0.0072,-0.0072,-0.003,-0.0029,-0.0029]}]]